TimeCST,TemperatureF,Dew PointF,Humidity,Sea Level PressureIn,VisibilityMPH,Wind Direction,Wind SpeedMPH,Gust SpeedMPH,PrecipitationIn,Events,Conditions,WindDirDegrees,DateUTC
12:15 AM,1.4,-4.0,78,30.27,10.0,West,5.8,-,N/A,,Mostly Cloudy,280,2013-01-22 06:15:00
12:35 AM,1.4,-2.2,85,30.27,10.0,WNW,5.8,-,N/A,,Overcast,290,2013-01-22 06:35:00
12:55 AM,1.4,-5.8,72,30.27,10.0,WNW,6.9,-,N/A,,Mostly Cloudy,290,2013-01-22 06:55:00
1:15 AM,1.4,-2.2,85,30.28,10.0,WNW,4.6,-,N/A,,Mostly Cloudy,300,2013-01-22 07:15:00
1:35 AM,1.4,-4.0,78,30.27,10.0,WNW,4.6,-,N/A,,Mostly Cloudy,300,2013-01-22 07:35:00
1:55 AM,1.4,-4.0,78,30.27,10.0,WNW,3.5,-,N/A,,Partly Cloudy,300,2013-01-22 07:55:00
2:15 AM,1.4,-4.0,78,30.27,10.0,NW,6.9,-,N/A,,Clear,310,2013-01-22 08:15:00
2:35 AM,1.4,-5.8,72,30.27,10.0,NW,9.2,-,N/A,,Clear,310,2013-01-22 08:35:00
2:55 AM,1.4,-7.6,66,30.27,10.0,NW,5.8,-,N/A,,Clear,310,2013-01-22 08:55:00
3:15 AM,-0.4,-5.8,78,30.27,10.0,NW,6.9,-,N/A,,Clear,320,2013-01-22 09:15:00
3:35 AM,-0.4,-9.4,66,30.27,10.0,Calm,Calm,-,N/A,,Clear,0,2013-01-22 09:35:00
3:55 AM,-0.4,-5.8,78,30.28,10.0,WNW,3.5,-,N/A,,Clear,290,2013-01-22 09:55:00
4:15 AM,-0.4,-7.6,72,30.27,10.0,Calm,Calm,-,N/A,,Clear,0,2013-01-22 10:15:00
4:35 AM,-0.4,-5.8,78,30.27,10.0,Calm,Calm,-,N/A,,Scattered Clouds,0,2013-01-22 10:35:00
4:55 AM,-0.4,-5.8,78,30.27,10.0,Calm,Calm,-,N/A,,Scattered Clouds,0,2013-01-22 10:55:00
5:15 AM,-0.4,-5.8,78,30.27,10.0,Calm,Calm,-,N/A,,Mostly Cloudy,0,2013-01-22 11:15:00
5:35 AM,-0.4,-5.8,78,30.27,10.0,Calm,Calm,-,N/A,,Mostly Cloudy,0,2013-01-22 11:35:00
5:55 AM,-2.2,-7.6,78,30.28,10.0,Calm,Calm,-,N/A,,Partly Cloudy,0,2013-01-22 11:55:00
6:15 AM,-0.4,-2.2,92,30.28,10.0,Calm,Calm,-,N/A,,Clear,0,2013-01-22 12:15:00
6:35 AM,-0.4,-7.6,72,30.28,10.0,Calm,Calm,-,N/A,,Scattered Clouds,0,2013-01-22 12:35:00
6:55 AM,1.4,-2.2,85,30.28,10.0,Calm,Calm,-,N/A,,Partly Cloudy,0,2013-01-22 12:55:00
7:15 AM,1.4,-9.4,61,30.29,10.0,Calm,Calm,-,N/A,,Mostly Cloudy,0,2013-01-22 13:15:00
7:35 AM,1.4,-2.2,85,30.27,10.0,Calm,Calm,-,N/A,,Overcast,0,2013-01-22 13:35:00
7:55 AM,1.4,-5.8,72,30.27,10.0,Calm,Calm,-,N/A,,Overcast,0,2013-01-22 13:55:00
8:15 AM,1.4,-4.0,78,30.28,10.0,SSW,3.5,-,N/A,,Overcast,200,2013-01-22 14:15:00
8:35 AM,1.4,-5.8,72,30.28,10.0,Calm,Calm,-,N/A,,Overcast,0,2013-01-22 14:35:00
8:55 AM,1.4,-5.8,72,30.28,10.0,Calm,Calm,-,N/A,,Mostly Cloudy,0,2013-01-22 14:55:00
9:35 AM,3.2,-5.8,66,30.29,10.0,Calm,Calm,-,N/A,,Clear,0,2013-01-22 15:35:00
9:55 AM,3.2,-5.8,66,30.30,10.0,SSW,4.6,-,N/A,,Clear,210,2013-01-22 15:55:00
10:15 AM,3.2,-5.8,66,30.30,10.0,South,4.6,-,N/A,,Clear,180,2013-01-22 16:15:00
10:35 AM,3.2,-5.8,66,30.30,10.0,South,4.6,-,N/A,,Clear,180,2013-01-22 16:35:00
10:55 AM,5.0,-4.0,66,30.30,10.0,South,3.5,-,N/A,,Scattered Clouds,170,2013-01-22 16:55:00
11:15 AM,5.0,-5.8,61,30.30,10.0,South,4.6,-,N/A,,Mostly Cloudy,180,2013-01-22 17:15:00
11:35 AM,6.8,-2.2,67,30.30,10.0,South,4.6,-,N/A,,Overcast,170,2013-01-22 17:35:00
11:55 AM,6.8,-5.8,56,30.28,10.0,SSE,5.8,-,N/A,,Overcast,160,2013-01-22 17:55:00
12:15 PM,6.8,-2.2,67,30.28,10.0,South,6.9,-,N/A,,Overcast,190,2013-01-22 18:15:00
12:35 PM,6.8,-2.2,67,30.27,10.0,South,8.1,-,N/A,,Overcast,190,2013-01-22 18:35:00
12:55 PM,8.6,-0.4,67,30.26,10.0,South,10.4,-,N/A,,Overcast,180,2013-01-22 18:55:00
1:15 PM,8.6,-0.4,67,30.24,10.0,South,8.1,-,N/A,,Overcast,180,2013-01-22 19:15:00
1:35 PM,8.6,-0.4,67,30.23,10.0,South,5.8,-,N/A,,Overcast,180,2013-01-22 19:35:00
1:55 PM,10.4,1.4,67,30.23,10.0,South,4.6,-,N/A,,Overcast,190,2013-01-22 19:55:00
2:15 PM,10.4,1.4,67,30.22,10.0,South,6.9,-,N/A,,Overcast,180,2013-01-22 20:15:00
2:35 PM,12.2,1.4,62,30.22,10.0,SSW,5.8,-,N/A,,Overcast,210,2013-01-22 20:35:00
2:55 PM,12.2,-0.4,57,30.22,10.0,SSW,5.8,-,N/A,,Mostly Cloudy,200,2013-01-22 20:55:00
3:15 PM,12.2,1.4,62,30.22,10.0,SW,5.8,-,N/A,,Mostly Cloudy,230,2013-01-22 21:15:00
3:35 PM,10.4,-0.4,62,30.22,10.0,South,5.8,-,N/A,,Overcast,180,2013-01-22 21:35:00
3:55 PM,10.4,1.4,67,30.21,10.0,South,6.9,-,N/A,,Overcast,170,2013-01-22 21:55:00
4:15 PM,10.4,1.4,67,30.20,10.0,SSE,4.6,-,N/A,,Overcast,160,2013-01-22 22:15:00
4:35 PM,10.4,1.4,67,30.21,10.0,South,4.6,-,N/A,,Overcast,190,2013-01-22 22:35:00
4:55 PM,10.4,3.2,73,30.21,10.0,South,3.5,-,N/A,,Overcast,170,2013-01-22 22:55:00
5:15 PM,10.4,3.2,73,30.20,10.0,SSE,4.6,-,N/A,,Overcast,160,2013-01-22 23:15:00
5:35 PM,10.4,3.2,73,30.20,10.0,South,6.9,-,N/A,,Overcast,170,2013-01-22 23:35:00
5:55 PM,10.4,5.0,79,30.20,10.0,South,6.9,-,N/A,,Overcast,170,2013-01-22 23:55:00
6:15 PM,10.4,6.8,85,30.19,10.0,SSE,5.8,-,N/A,,Overcast,160,2013-01-23 00:15:00
6:35 PM,10.4,6.8,85,30.18,10.0,South,8.1,-,N/A,,Overcast,170,2013-01-23 00:35:00
6:55 PM,10.4,6.8,85,30.19,10.0,South,9.2,-,N/A,,Overcast,170,2013-01-23 00:55:00
7:15 PM,10.4,6.8,85,30.19,10.0,South,6.9,-,N/A,,Overcast,170,2013-01-23 01:15:00
7:35 PM,10.4,6.8,85,30.17,10.0,South,8.1,-,N/A,,Overcast,170,2013-01-23 01:35:00
7:55 PM,10.4,6.8,85,30.16,10.0,South,9.2,-,N/A,,Overcast,170,2013-01-23 01:55:00
8:15 PM,10.4,6.8,85,30.16,10.0,South,11.5,-,N/A,,Overcast,180,2013-01-23 02:15:00
8:35 PM,12.2,8.6,85,30.16,10.0,South,9.2,-,N/A,,Overcast,170,2013-01-23 02:35:00
8:55 PM,12.2,8.6,85,30.15,10.0,South,9.2,-,N/A,,Overcast,170,2013-01-23 02:55:00
9:15 PM,12.2,8.6,85,30.15,10.0,South,10.4,-,N/A,,Overcast,170,2013-01-23 03:15:00
9:35 PM,12.2,8.6,85,30.14,10.0,South,11.5,-,N/A,,Overcast,170,2013-01-23 03:35:00
9:55 PM,12.2,8.6,85,30.13,10.0,South,13.8,-,N/A,,Overcast,170,2013-01-23 03:55:00
10:15 PM,12.2,10.4,92,30.14,10.0,South,10.4,-,N/A,,Overcast,170,2013-01-23 04:15:00
10:35 PM,12.2,8.6,85,30.13,10.0,South,10.4,-,N/A,,Overcast,170,2013-01-23 04:35:00
10:55 PM,12.2,10.4,92,30.13,10.0,South,10.4,-,N/A,,Overcast,180,2013-01-23 04:55:00
11:15 PM,12.2,8.6,85,30.13,10.0,South,9.2,-,N/A,,Overcast,170,2013-01-23 05:15:00
11:35 PM,14.0,10.4,86,30.13,10.0,South,9.2,-,N/A,,Overcast,180,2013-01-23 05:35:00
11:55 PM,14.0,10.4,86,30.13,10.0,South,9.2,-,N/A,,Overcast,190,2013-01-23 05:55:00